Probability
0 0 0 0 0 0 0 0 0 0 0 0 3 0 0 0 0 35 81 0 3 61 97 100 100 100 100 100 100 100 100 100 100 100 100 100 100 100 100 100 100 100 100 100 100 100 100 97 87
0 0 0 0 0 0 0 0 0 0 0 0 6 10 10 23 61 94 48 3 26 84 100 94 100 100 100 100 100 100 100 100 100 100 100 100 100 100 100 100 100 100 100 100 97 100 97 84 61
0 0 0 0 0 0 0 0 0 0 0 6 10 13 13 26 81 81 52 0 29 87 100 100 100 100 100 100 100 100 100 100 100 100 100 100 100 100 100 100 100 100 100 100 100 97 81 48 32
0 0 0 0 0 0 0 0 0 0 0 3 13 16 26 68 77 61 42 3 29 71 97 100 100 100 100 100 100 100 100 100 100 100 100 100 100 100 100 100 100 100 100 100 100 87 61 26 23
0 0 0 0 0 0 0 0 0 0 0 3 6 10 39 100 77 52 35 6 48 71 97 100 100 100 100 100 100 100 100 100 100 100 100 100 100 100 100 100 100 100 100 100 97 84 68 42 23
0 0 0 0 0 0 0 0 0 0 0 0 3 3 48 100 84 55 48 29 26 68 87 100 100 100 100 100 100 100 100 100 100 100 100 100 100 100 100 100 100 97 97 94 90 81 48 35 23
0 0 0 0 0 0 0 0 0 0 0 0 3 3 55 100 90 81 65 55 26 55 94 100 100 100 100 100 100 100 100 100 100 100 100 100 100 100 100 100 97 97 94 94 90 68 45 29 19
0 0 0 0 0 0 0 0 0 0 0 0 0 3 45 100 100 94 84 65 55 74 97 100 100 100 100 100 100 100 100 100 100 100 100 100 100 100 100 100 100 97 97 94 74 65 48 32 23
0 0 0 0 0 0 0 0 0 0 0 3 6 16 58 97 100 100 97 87 84 90 100 100 100 100 100 100 100 100 100 100 100 100 100 100 100 100 100 100 100 97 94 81 68 52 45 32 13
0 0 0 0 0 0 0 0 0 0 0 0 16 58 97 100 100 100 100 94 94 100 100 100 100 100 100 97 100 100 100 100 100 100 100 100 100 100 90 100 100 94 81 84 68 58 39 6 3
0 0 0 0 0 0 0 0 0 0 0 0 23 71 97 100 100 100 97 97 94 100 100 94 100 100 100 100 100 100 100 100 100 100 100 100 100 100 100 100 97 94 87 68 61 26 6 3 0
0 0 0 0 0 0 0 0 0 0 0 0 6 45 100 100 100 97 94 90 87 90 94 94 100 100 100 100 100 100 100 100 100 100 100 100 100 100 97 97 90 87 74 55 26 16 3 3 0
0 0 0 0 0 0 0 0 0 0 0 0 10 45 97 94 100 97 97 90 90 90 94 94 100 100 100 100 100 100 100 100 100 100 100 100 100 100 94 97 94 71 52 55 39 10 13 0 0
0 0 0 0 0 0 0 0 0 0 0 0 10 42 87 87 97 100 100 100 97 97 100 100 100 100 100 100 100 100 100 100 100 100 100 100 100 100 100 97 97 77 58 39 26 23 19 3 0
0 0 0 0 0 0 0 0 0 0 0 3 16 48 84 90 97 100 100 100 100 100 100 100 100 100 100 100 100 100 100 100 100 100 100 100 100 100 100 97 94 84 71 65 39 16 10 3 0
0 0 0 0 0 0 0 0 0 0 0 10 13 26 68 87 97 100 100 100 100 100 100 100 100 100 100 100 100 100 100 97 94 94 94 97 97 97 97 90 87 84 71 52 19 6 3 3 0
0 0 0 0 0 0 0 0 0 0 0 6 10 23 42 81 94 97 100 100 100 100 100 100 100 100 100 100 97 94 94 90 90 87 84 81 84 81 84 81 65 48 39 16 6 3 0 0 0
0 0 0 0 0 0 0 0 0 0 0 6 10 10 23 48 74 94 97 100 100 100 100 100 100 100 97 94 94 87 74 71 61 55 55 55 52 52 55 52 29 23 16 6 0 0 0 0 0
0 0 0 0 0 0 0 0 0 0 0 3 6 10 13 23 26 55 84 97 100 100 100 100 100 97 97 94 90 65 45 35 26 16 16 23 23 19 19 19 13 6 0 0 0 0 0 0 0
0 0 0 0 0 0 0 0 0 0 0 0 3 10 10 10 19 32 52 84 87 100 100 100 97 97 94 94 77 52 29 16 10 0 0 0 0 0 0 3 0 0 0 0 0 0 0 0 0
0 0 0 0 0 0 0 0 0 0 0 6 6 6 19 29 39 45 48 48 77 87 100 97 94 94 87 74 48 19 10 10 0 0 0 0 0 0 0 0 0 0 0 0 0 0 0 0 0
0 0 0 0 0 0 0 0 0 0 0 10 13 26 35 39 48 55 65 71 65 87 97 94 94 90 81 58 42 39 26 6 6 0 0 0 0 0 0 0 0 0 0 0 0 0 0 0 0
0 0 0 0 0 0 0 0 0 0 0 13 32 39 48 55 52 61 68 74 87 94 94 97 90 74 68 61 55 48 32 13 0 0 0 0 0 0 0 0 0 0 0 0 0 0 0 0 0
0 0 0 0 0 0 0 0 0 0 10 23 55 42 42 45 61 52 58 68 68 68 74 71 68 55 45 42 32 35 19 0 0 0 0 0 0 0 0 0 0 0 0 0 0 0 0 0 0
0 0 0 0 0 0 0 0 0 19 48 61 52 35 23 26 35 29 32 32 39 42 39 45 39 32 23 23 19 16 13 3 0 0 0 0 0 0 0 0 0 0 0 0 0 0 0 0 0
0 0 0 0 0 0 0 0 6 35 74 58 39 19 10 10 6 13 13 19 6 10 10 3 3 3 6 6 3 0 0 0 0 0 0 0 0 0 0 0 0 0 0 0 0 0 0 0 0
0 0 0 0 0 0 0 0 10 48 68 58 39 13 3 3 3 3 3 3 3 3 3 3 3 0 0 0 0 0 0 0 0 0 0 0 0 0 0 0 0 0 0 0 0 0 0 0 0
0 0 0 0 0 0 0 0 0 71 77 55 42 6 3 0 0 0 0 0 0 0 0 0 0 0 0 0 0 0 0 0 0 0 0 0 0 0 0 0 0 0 0 0 0 0 0 0 0
0 0 0 0 0 0 0 0 0 68 81 52 13 3 0 0 0 0 0 0 0 0 0 0 0 0 0 0 0 0 0 0 0 0 0 0 0 0 0 0 0 0 0 0 0 0 0 0 0
0 0 0 0 0 0 0 3 10 55 71 32 6 3 0 0 0 0 0 0 0 0 0 0 0 0 0 0 0 0 0 0 0 0 0 0 0 0 0 0 0 0 0 0 0 0 0 0 0
Height
5891 5894 5897 5900 5903 5906 5907 5907 5907 5907 5907 5906 5906 5905 5904 5903 5904 5905 5902 5900 5900 5899 5899 5899 5899 5899 5899 5899 5899 5899 5899 5899 5899 5899 5899 5899 5899 5899 5899 5899 5900 5900 5900 5900 5900 5900 5900 5900 5899
5889 5891 5895 5898 5901 5904 5906 5905 5905 5905 5905 5905 5904 5903 5902 5902 5901 5901 5900 5899 5899 5898 5898 5898 5898 5898 5898 5898 5898 5898 5898 5897 5897 5897 5897 5897 5897 5897 5897 5897 5898 5898 5898 5898 5898 5898 5897 5897 5896
5886 5888 5892 5895 5898 5901 5903 5902 5903 5903 5904 5904 5903 5902 5901 5901 5900 5900 5899 5898 5898 5897 5897 5897 5897 5897 5897 5897 5897 5897 5896 5896 5896 5896 5895 5895 5895 5895 5895 5895 5895 5895 5896 5896 5895 5895 5895 5894 5894
5883 5886 5889 5893 5894 5896 5898 5900 5901 5902 5903 5903 5902 5901 5900 5900 5899 5899 5898 5898 5897 5897 5896 5896 5896 5896 5896 5895 5895 5895 5895 5895 5894 5894 5894 5894 5894 5893 5893 5893 5893 5893 5893 5893 5893 5893 5892 5892 5892
5879 5882 5886 5889 5891 5893 5895 5897 5899 5900 5901 5902 5902 5901 5900 5899 5899 5898 5898 5898 5897 5897 5896 5896 5895 5895 5895 5894 5894 5894 5894 5894 5893 5893 5893 5892 5892 5892 5891 5891 5891 5891 5891 5891 5891 5891 5890 5890 5890
5876 5879 5882 5885 5887 5889 5892 5894 5897 5899 5900 5901 5901 5901 5900 5899 5898 5898 5898 5898 5897 5896 5896 5896 5895 5895 5894 5894 5894 5893 5893 5892 5892 5892 5891 5891 5890 5890 5890 5889 5889 5889 5889 5889 5889 5889 5888 5888 5887
5873 5876 5878 5881 5883 5885 5889 5892 5895 5897 5898 5900 5900 5900 5899 5899 5898 5898 5898 5898 5897 5897 5896 5896 5895 5895 5894 5894 5893 5893 5892 5891 5891 5890 5890 5890 5889 5888 5888 5888 5887 5887 5887 5887 5887 5886 5886 5885 5885
5870 5873 5875 5877 5879 5882 5886 5889 5892 5895 5897 5898 5899 5899 5899 5899 5898 5898 5898 5898 5897 5897 5896 5896 5895 5895 5894 5894 5893 5892 5892 5891 5890 5889 5889 5888 5887 5887 5886 5886 5885 5885 5885 5885 5884 5884 5883 5883 5882
5866 5870 5871 5873 5876 5879 5882 5887 5890 5893 5895 5897 5898 5898 5898 5898 5897 5898 5898 5898 5897 5897 5896 5896 5895 5894 5894 5893 5892 5892 5891 5890 5889 5888 5887 5886 5886 5885 5884 5883 5883 5883 5883 5882 5882 5881 5881 5880 5879
5864 5866 5868 5869 5872 5875 5879 5884 5888 5892 5894 5896 5897 5897 5897 5897 5897 5897 5898 5897 5897 5897 5896 5895 5895 5894 5893 5892 5891 5890 5889 5888 5887 5886 5885 5884 5883 5882 5881 5881 5880 5880 5880 5879 5879 5878 5878 5877 5877
5861 5862 5863 5865 5868 5872 5877 5882 5886 5890 5893 5894 5895 5896 5896 5896 5896 5896 5897 5897 5896 5896 5895 5895 5894 5893 5892 5891 5890 5889 5888 5887 5886 5884 5883 5882 5881 5880 5879 5878 5877 5877 5876 5876 5876 5875 5874 5874 5873
5858 5858 5860 5863 5866 5870 5875 5880 5884 5888 5890 5892 5893 5894 5895 5895 5895 5895 5895 5895 5895 5895 5894 5894 5893 5892 5891 5890 5889 5887 5886 5885 5883 5882 5881 5879 5878 5877 5876 5875 5874 5874 5874 5873 5872 5871 5871 5870 5870
5854 5855 5858 5860 5864 5868 5872 5877 5881 5885 5887 5889 5891 5893 5894 5894 5894 5894 5894 5894 5894 5893 5893 5892 5891 5890 5889 5888 5887 5885 5884 5882 5881 5880 5878 5877 5875 5874 5873 5872 5871 5870 5869 5869 5869 5868 5867 5866 5866
5851 5853 5855 5858 5861 5865 5870 5875 5879 5882 5884 5887 5889 5890 5891 5892 5892 5893 5892 5892 5892 5892 5891 5890 5889 5887 5886 5885 5884 5883 5881 5880 5878 5876 5875 5873 5872 5870 5869 5867 5866 5865 5864 5864 5864 5863 5862 5862 5861
5849 5851 5853 5856 5859 5863 5868 5872 5876 5878 5881 5884 5886 5887 5889 5889 5890 5891 5890 5890 5890 5889 5889 5888 5886 5885 5883 5882 5881 5880 5878 5877 5875 5873 5871 5869 5867 5865 5863 5862 5860 5859 5858 5858 5857 5857 5856 5855 5855
5845 5848 5851 5854 5856 5860 5866 5870 5872 5875 5878 5880 5882 5884 5885 5886 5887 5888 5888 5888 5887 5886 5886 5885 5883 5882 5880 5879 5878 5876 5874 5873 5871 5868 5866 5864 5861 5858 5856 5854 5853 5852 5851 5850 5850 5849 5849 5848 5847
5842 5845 5848 5850 5853 5857 5861 5866 5867 5871 5874 5877 5879 5880 5882 5883 5884 5884 5884 5884 5884 5883 5882 5881 5880 5879 5877 5875 5873 5871 5870 5867 5865 5862 5859 5857 5854 5851 5848 5846 5844 5843 5842 5842 5841 5841 5840 5840 5840
5837 5841 5843 5846 5849 5853 5857 5860 5862 5866 5869 5872 5874 5876 5878 5879 5880 5880 5880 5880 5880 5879 5879 5877 5876 5874 5873 5871 5868 5866 5864 5862 5858 5855 5852 5848 5846 5843 5840 5838 5836 5834 5833 5833 5833 5832 5832 5831 5831
5831 5835 5838 5841 5843 5848 5851 5854 5858 5860 5864 5866 5869 5871 5873 5874 5875 5875 5875 5876 5876 5875 5874 5873 5871 5870 5868 5866 5863 5861 5859 5856 5852 5847 5844 5841 5838 5835 5832 5829 5827 5825 5825 5824 5824 5824 5824 5824 5823
5825 5830 5833 5836 5838 5843 5845 5848 5852 5855 5857 5860 5862 5865 5867 5868 5869 5870 5870 5870 5871 5870 5870 5868 5867 5865 5863 5861 5858 5856 5853 5849 5845 5841 5837 5834 5831 5827 5824 5822 5820 5818 5817 5817 5817 5816 5816 5815 5815
5819 5824 5828 5831 5833 5836 5840 5844 5847 5849 5851 5853 5856 5858 5860 5862 5863 5864 5864 5864 5864 5864 5864 5863 5861 5859 5857 5855 5853 5850 5846 5843 5839 5836 5832 5829 5824 5821 5817 5815 5813 5811 5811 5810 5810 5809 5809 5808 5807
5813 5818 5822 5824 5828 5832 5834 5839 5842 5841 5843 5846 5848 5850 5852 5854 5855 5856 5857 5857 5858 5858 5857 5857 5856 5854 5851 5849 5846 5843 5840 5837 5834 5830 5827 5823 5819 5816 5813 5811 5809 5807 5805 5804 5804 5802 5801 5800 5799
5807 5811 5815 5818 5821 5824 5826 5831 5837 5833 5835 5837 5840 5842 5844 5845 5847 5848 5849 5850 5850 5851 5850 5850 5848 5847 5845 5842 5840 5837 5834 5831 5827 5824 5821 5818 5815 5813 5810 5808 5805 5802 5800 5799 5797 5796 5794 5792 5790
5800 5805 5809 5812 5815 5818 5821 5824 5830 5826 5826 5829 5832 5834 5835 5836 5837 5839 5840 5842 5842 5842 5842 5842 5840 5839 5837 5835 5832 5830 5827 5824 5821 5818 5815 5812 5809 5807 5804 5802 5799 5797 5795 5793 5791 5788 5786 5783 5780
5795 5800 5804 5807 5810 5813 5814 5817 5820 5817 5820 5822 5824 5825 5827 5828 5829 5830 5832 5833 5833 5834 5834 5833 5832 5830 5828 5826 5824 5822 5819 5816 5814 5811 5808 5805 5803 5800 5797 5795 5792 5790 5787 5784 5782 5779 5776 5773 5769
5789 5794 5800 5804 5808 5810 5807 5810 5810 5811 5813 5815 5816 5818 5819 5820 5821 5822 5823 5824 5825 5825 5825 5824 5823 5821 5819 5818 5815 5813 5811 5808 5805 5802 5799 5797 5794 5792 5789 5786 5784 5781 5778 5775 5772 5768 5765 5761 5757
5783 5787 5792 5796 5798 5803 5804 5801 5802 5804 5806 5808 5809 5811 5812 5813 5814 5815 5815 5816 5816 5816 5816 5815 5814 5813 5811 5809 5806 5804 5802 5799 5796 5793 5790 5788 5785 5782 5779 5777 5774 5771 5768 5764 5761 5757 5752 5748 5743
5778 5781 5784 5788 5792 5796 5799 5798 5797 5797 5800 5802 5803 5804 5805 5806 5807 5807 5808 5808 5808 5808 5808 5807 5805 5804 5802 5800 5797 5795 5792 5789 5786 5783 5780 5777 5774 5771 5768 5765 5762 5758 5755 5751 5747 5743 5738 5733 5728
5773 5775 5778 5782 5786 5791 5794 5797 5790 5791 5794 5795 5797 5798 5799 5799 5800 5800 5800 5800 5800 5799 5799 5798 5796 5794 5792 5790 5787 5785 5782 5779 5776 5772 5769 5766 5762 5759 5756 5752 5749 5745 5741 5737 5733 5728 5724 5719 5714
5767 5770 5773 5777 5779 5781 5786 5789 5785 5785 5787 5789 5790 5791 5792 5792 5792 5792 5792 5791 5791 5790 5789 5788 5787 5785 5783 5780 5777 5774 5771 5768 5765 5761 5757 5754 5750 5746 5743 5739 5735 5731 5727 5723 5719 5714 5709 5704 5699
Wind_Speed
23 22 20 18 16 14 11 11 8 6 5 4 4 4 3 3 2 2 1 0 1 1 2 2 2 2 2 2 3 3 3 3 3 3 3 3 3 4 4 5 5 6 6 6 6 7 8 9 10
24 23 21 19 18 14 12 14 11 7 5 4 4 3 1 0 1 3 3 3 2 2 3 3 3 2 2 1 2 2 2 2 2 2 2 3 3 4 5 5 6 6 6 7 7 8 9 10 11
23 23 22 22 21 18 17 16 13 8 5 3 2 1 1 3 5 5 5 5 4 5 5 5 5 4 3 1 0 1 1 1 2 2 2 3 4 5 6 6 7 7 7 7 7 8 8 9 10
22 22 22 23 22 22 21 18 14 9 5 3 1 1 3 6 7 7 7 6 6 6 6 6 5 4 3 2 1 0 0 1 2 2 3 4 5 6 7 7 7 7 7 7 7 7 8 9 10
20 21 22 22 22 23 22 18 13 9 6 4 3 3 5 8 9 8 8 8 8 8 8 7 6 5 4 3 2 1 1 1 2 3 4 5 6 6 7 8 8 8 8 8 8 8 9 10 11
19 19 21 22 23 24 23 19 15 10 8 6 6 6 7 9 10 9 9 9 9 10 10 9 8 7 7 5 4 3 2 2 2 3 4 5 6 7 8 8 9 9 9 10 10 10 10 11 12
16 17 19 23 27 26 24 19 16 12 10 9 9 9 9 10 11 11 10 10 11 11 11 11 10 9 8 7 6 5 5 4 4 5 5 6 7 8 9 10 10 10 10 11 11 10 11 11 12
14 15 18 25 28 27 24 19 16 14 13 11 11 11 11 11 11 11 10 10 10 10 10 9 9 9 8 8 7 6 6 6 6 7 7 8 9 9 10 10 10 11 10 10 10 10 10 10 10
14 15 18 25 29 28 24 20 17 15 13 13 13 13 12 11 10 10 8 8 8 8 8 8 8 8 8 8 7 7 7 7 8 8 9 9 10 11 11 11 11 10 10 9 9 8 8 8 8
13 14 19 25 29 28 24 20 18 16 14 15 15 14 12 10 9 8 6 5 5 6 6 6 7 8 7 7 7 8 8 8 8 8 9 9 10 11 12 12 12 11 10 9 9 9 8 8 8
14 16 20 24 27 26 23 21 20 17 16 16 16 14 12 9 8 6 4 3 3 4 5 6 8 8 7 8 8 9 9 9 9 9 9 10 11 12 13 13 13 12 11 11 10 10 10 10 10
16 18 20 22 24 24 24 22 21 19 18 18 17 14 12 9 7 5 3 1 2 4 6 8 9 10 9 10 11 11 12 12 12 12 12 12 13 14 14 15 15 14 14 13 13 13 12 12 12
19 20 21 22 22 23 23 23 22 20 20 18 15 13 12 10 8 6 4 3 4 6 8 9 11 12 12 12 13 13 14 14 14 15 15 16 17 17 17 17 17 17 17 17 17 16 15 15 15
22 22 21 21 21 22 23 23 22 21 21 19 16 13 13 11 10 9 7 6 7 8 9 11 13 14 15 15 15 15 15 16 17 18 18 19 20 21 22 22 21 21 21 21 21 20 20 20 20
24 23 22 21 22 22 21 21 22 23 21 20 18 16 14 13 13 12 11 11 10 11 12 14 15 15 16 17 18 18 18 19 20 22 22 23 24 26 26 26 26 26 26 25 25 24 24 24 24
25 25 25 25 24 23 22 21 23 23 22 21 20 18 15 15 15 15 15 14 14 14 15 16 17 17 18 19 20 21 22 24 26 27 28 29 30 31 32 32 31 31 31 30 30 29 29 28 28
28 27 28 29 27 25 25 24 24 22 22 22 22 20 18 17 16 17 18 19 19 19 19 20 20 20 21 22 23 25 26 28 30 32 34 36 36 36 36 36 37 37 36 36 35 34 33 32 31
30 30 32 32 31 29 28 29 27 25 24 24 24 23 21 19 19 21 22 23 23 23 23 23 23 23 23 25 27 28 30 32 35 37 38 39 39 39 39 38 38 39 39 39 38 36 35 34 33
32 32 35 37 34 32 33 32 31 29 28 27 27 27 25 24 23 23 24 26 26 26 27 26 26 26 27 28 30 32 34 35 39 41 42 41 38 36 36 36 37 38 39 38 38 38 37 35 33
34 34 35 38 37 37 37 36 34 34 33 31 31 30 30 29 28 27 26 27 28 28 29 29 29 29 30 32 34 35 37 39 42 43 41 38 35 33 34 34 33 34 35 36 36 35 34 33 32
34 35 36 38 40 40 39 38 38 38 37 35 34 34 34 33 32 32 31 30 29 29 30 31 31 33 34 35 36 38 40 41 42 42 41 39 37 32 31 31 30 29 31 33 32 32 32 31 30
32 34 36 37 39 40 43 41 37 41 41 39 38 38 37 37 37 36 34 32 31 31 32 33 34 36 37 38 38 40 41 43 43 44 42 41 35 32 30 28 27 25 27 28 29 29 29 30 32
32 33 35 37 39 41 42 41 36 42 42 42 42 41 41 41 40 38 36 34 33 33 33 35 36 37 38 39 40 41 41 42 44 42 40 39 34 32 29 28 27 26 27 27 28 30 32 34 35
32 33 34 36 38 40 40 40 35 41 42 41 42 42 42 42 41 38 36 34 33 33 34 35 36 38 39 40 40 40 40 41 41 39 39 37 35 34 32 30 29 29 29 31 33 35 37 38 40
32 32 31 32 35 34 36 37 35 42 39 38 38 38 38 37 37 35 34 32 32 32 33 34 35 36 37 38 38 38 38 38 38 38 37 36 35 34 33 32 32 33 34 35 37 38 40 43 45
30 31 30 25 23 23 31 31 36 37 35 34 33 32 32 31 31 31 30 29 29 30 31 33 34 35 36 37 37 37 37 37 37 37 37 36 36 36 35 35 35 36 38 39 41 43 45 48 50
28 30 28 29 26 22 21 29 34 32 31 30 29 28 28 27 27 27 27 27 27 29 30 31 33 34 36 36 36 36 37 37 37 38 38 39 39 39 39 39 40 41 42 44 46 48 50 51 53
27 26 29 30 26 23 22 24 26 29 28 27 26 26 26 26 25 25 26 27 28 29 30 31 33 34 35 36 36 37 38 39 39 40 41 42 43 43 44 44 45 46 46 48 49 51 53 54 56
24 27 28 27 24 22 19 20 25 25 24 24 25 25 25 25 25 26 27 29 30 31 32 33 34 35 36 37 38 39 40 41 42 44 45 46 46 47 47 48 48 48 49 50 52 53 54 56 57
22 23 26 26 25 26 22 24 25 23 22 22 23 24 25 26 26 28 29 31 32 33 34 36 37 38 39 40 41 42 43 44 46 47 49 50 50 50 49 49 50 50 51 52 53 54 55 57 57
Wind_Direction
216 216 214 211 209 213 220 224 230 247 259 282 300 302 284 265 262 258 250 189 192 200 202 197 188 202 219 242 261 266 263 255 247 239 233 235 237 243 247 249 252 255 257 261 268 272 274 277 278
215 216 215 211 209 208 222 225 229 243 256 281 301 313 298 180 124 97 91 94 97 108 119 119 122 141 159 204 254 263 266 264 253 240 235 237 241 248 254 257 258 258 259 262 266 268 270 271 273
215 215 213 209 209 208 215 221 227 235 246 269 300 345 81 100 104 95 90 90 93 95 97 97 97 105 115 123 169 261 255 251 246 239 239 243 248 252 256 260 261 261 261 260 260 261 262 264 267
216 216 213 209 208 212 216 219 223 223 233 247 243 104 103 104 100 95 89 88 90 90 88 85 83 84 85 81 66 354 248 237 239 241 242 244 248 252 255 259 260 260 258 255 253 252 254 258 262
217 215 212 207 207 212 214 216 215 212 224 216 184 136 115 111 102 94 89 88 89 84 79 74 71 69 69 64 50 27 343 284 269 258 250 247 248 251 255 258 259 260 260 257 255 256 257 260 264
219 214 209 202 204 212 213 213 209 209 208 195 175 150 130 118 105 96 92 92 89 84 79 73 68 61 55 51 40 22 358 327 307 285 269 262 260 262 264 266 266 266 266 265 264 265 268 270 271
217 215 205 200 204 210 213 212 207 203 200 187 177 162 145 125 109 100 95 94 89 85 80 73 66 58 50 42 29 13 354 338 321 303 288 279 276 276 277 278 279 277 276 276 276 276 276 276 276
220 218 208 203 206 211 213 206 201 198 195 188 180 166 151 135 119 107 102 96 89 82 75 67 60 51 43 34 23 11 360 347 333 320 307 298 292 289 287 286 286 285 284 283 283 281 280 279 280
225 223 212 206 207 212 211 204 197 196 196 192 185 174 161 144 128 116 106 95 84 72 62 55 46 37 32 25 19 13 5 353 340 328 317 308 303 299 295 293 290 287 286 284 282 281 280 280 281
229 223 214 211 211 213 209 201 194 195 197 196 189 181 172 157 141 126 112 91 70 54 41 30 24 21 21 18 13 6 360 354 347 338 327 316 308 301 296 292 288 284 281 279 278 277 278 279 283
230 222 219 217 215 213 207 200 195 196 199 200 197 193 188 177 161 145 130 96 40 17 6 358 355 354 353 351 351 350 347 343 337 331 326 316 307 300 294 289 284 281 278 276 273 272 274 277 281
228 226 225 222 217 213 208 202 197 198 201 205 207 209 207 204 193 186 173 146 347 342 340 337 335 334 333 333 336 336 335 333 328 321 317 313 305 299 294 288 284 280 277 272 268 267 270 273 277
225 228 225 223 219 215 210 205 202 203 209 214 217 221 223 226 224 226 230 254 296 319 324 325 326 326 328 329 332 331 328 326 323 318 313 309 303 296 290 285 280 275 273 270 267 266 267 268 270
226 228 227 225 221 217 214 210 209 212 217 221 223 228 235 238 242 248 257 267 282 298 310 316 321 324 327 329 331 330 329 326 322 317 310 303 296 291 286 280 277 272 269 268 267 264 264 265 267
228 230 230 228 224 221 219 217 218 219 222 226 229 233 242 249 253 257 265 273 281 291 298 305 311 316 319 322 326 327 325 321 317 312 306 299 292 286 279 274 271 269 266 265 265 264 264 265 266
227 230 230 229 227 226 222 222 226 225 228 232 234 238 246 255 260 263 268 276 281 286 290 296 302 306 310 313 317 319 318 317 313 306 300 294 288 282 275 269 265 264 263 263 262 262 263 264 265
223 227 228 231 231 229 226 224 231 229 233 236 238 243 250 259 266 269 271 274 277 280 284 289 293 297 301 305 307 310 310 309 307 303 295 292 288 283 277 273 267 264 263 262 260 260 261 262 264
221 223 227 231 233 230 231 231 237 237 238 240 242 246 252 260 268 269 271 272 275 279 282 285 287 289 293 297 300 300 303 305 301 297 295 292 288 287 282 277 271 266 264 263 262 261 262 264 265
222 221 224 229 235 233 235 236 239 242 243 245 247 250 254 259 264 269 272 273 276 279 280 282 282 284 288 291 294 295 297 299 299 294 296 296 293 291 285 280 276 271 266 264 263 263 263 264 266
224 223 225 230 235 236 238 240 242 245 246 248 250 253 256 259 264 269 273 274 274 275 277 279 280 282 285 288 290 293 295 297 299 298 300 302 302 298 292 285 281 277 270 267 264 265 266 268 272
227 225 225 228 233 238 242 245 247 249 250 251 253 255 257 260 264 269 273 273 272 272 274 276 278 279 282 285 288 292 294 298 300 302 305 309 311 306 298 291 286 280 275 272 271 270 273 278 281
229 227 227 229 232 235 240 239 245 249 250 253 255 258 261 264 268 270 271 270 270 270 271 273 275 277 280 284 287 290 292 295 300 302 306 315 322 318 307 297 291 286 285 279 281 285 286 289 292
229 229 229 230 232 234 241 241 240 252 253 253 256 260 263 266 268 270 269 268 268 268 269 271 272 274 278 281 284 287 289 293 296 300 304 313 318 318 313 307 300 294 294 291 295 293 294 297 296
229 230 231 232 234 237 240 243 241 248 253 256 257 259 262 265 267 268 267 267 266 266 267 267 268 271 274 278 281 284 286 290 294 298 303 308 312 312 311 306 302 298 298 297 296 295 296 295 294
230 231 233 235 238 241 242 243 241 248 254 256 257 258 260 263 265 267 267 266 264 264 264 265 267 270 273 275 278 281 284 288 292 297 301 305 306 307 305 303 301 298 296 296 294 292 293 293 293
233 232 231 232 241 244 248 244 245 250 252 253 254 256 259 261 263 264 264 263 263 263 263 264 266 268 271 274 277 280 283 287 292 296 300 302 304 304 303 300 298 295 293 294 293 291 292 292 291
234 233 231 233 233 232 241 248 249 249 250 251 253 255 258 260 261 261 262 262 262 262 263 264 266 268 271 274 277 280 285 289 293 296 299 302 303 303 301 299 297 295 293 292 291 290 290 290 289
232 232 231 232 232 238 244 255 258 252 250 252 254 256 259 260 260 259 260 261 262 263 264 266 268 270 272 275 279 283 287 291 295 298 300 302 302 301 300 298 297 295 293 291 290 290 290 289 289
233 231 232 232 230 232 239 246 251 255 253 253 255 256 259 260 260 260 261 263 265 266 267 269 270 272 275 278 281 285 289 293 296 298 300 301 301 300 298 297 296 293 292 291 290 289 289 289 290
231 230 231 231 235 239 234 246 250 253 252 253 255 256 258 259 261 262 263 265 267 268 270 271 273 275 278 280 283 286 289 292 295 297 298 298 299 298 296 295 293 292 291 290 289 289 290 290 291